,,,PA_Meas_PMT16A,,PR_Meas_QMR101_102,,RH_Meas_QMH101,,SR_Meas_QMS101,,TA_Meas_QMH101,,GenWind,,GenWind,
date,time,status,PA,status,PR,status,RH,status,SR,status,TA,status,DirAvg,status,SpdAvg,
2009-09-07, 00:00:04,VALID,1005.17,VALID,0,VALID,94.4227,VALID,0,VALID,24.2078,VALID,20,VALID,0.322266,
2009-09-07, 00:01:04,VALID,1005.15,VALID,0,VALID,94.3998,VALID,0,VALID,24.2291,VALID,20,VALID,0.273047,
2009-09-07, 00:02:04,VALID,1005.13,VALID,0,VALID,94.3845,VALID,0,VALID,24.1884,VALID,20,VALID,0.242188,
2009-09-07, 00:03:04,VALID,1005.13,VALID,0,VALID,94.354,VALID,0,VALID,24.2097,VALID,20,VALID,0.0902344,
2009-09-07, 00:04:04,VALID,1005.1,VALID,0,VALID,94.354,VALID,0,VALID,24.2097,VALID,20,VALID,0.0117188,
2009-09-07, 00:05:04,VALID,1005.09,VALID,0,VALID,94.3464,VALID,0,VALID,24.2291,VALID,20,VALID,0.109375,
2009-09-07, 00:06:04,VALID,1005.08,VALID,0,VALID,94.3311,VALID,0,VALID,24.1689,VALID,20,VALID,0.155859,
2009-09-07, 00:07:04,VALID,1005.07,VALID,0,VALID,94.3006,VALID,0,VALID,24.1902,VALID,20,VALID,0.355469,
2009-09-07, 00:08:04,VALID,1005.08,VALID,0,VALID,94.3006,VALID,0,VALID,24.1689,VALID,20,VALID,0.383594,
2009-09-07, 00:09:04,VALID,1005.09,VALID,0,VALID,94.293,VALID,0,VALID,24.1707,VALID,20,VALID,0.313281,
2009-09-07, 00:10:04,VALID,1005.05,VALID,0,VALID,94.2548,VALID,0,VALID,24.13,VALID,20,VALID,0.362109,
2009-09-07, 00:11:04,VALID,1005.07,VALID,0,VALID,94.209,VALID,0,VALID,24.1513,VALID,20,VALID,0.275391,
2009-09-07, 00:12:04,VALID,1005.05,VALID,0,VALID,94.1556,VALID,0,VALID,24.1123,VALID,20,VALID,0.39375,
2009-09-07, 00:13:04,VALID,1005.05,VALID,0,VALID,94.1404,VALID,0,VALID,24.091,VALID,20,VALID,0.319922,
2009-09-07, 00:14:04,VALID,1005.05,VALID,0,VALID,94.1175,VALID,0,VALID,24.0716,VALID,20,VALID,0.281641,
2009-09-07, 00:15:04,VALID,1005.02,VALID,0,VALID,94.1251,VALID,0,VALID,24.0734,VALID,20,VALID,0.160547,
2009-09-07, 00:16:04,VALID,1005.03,VALID,0,VALID,94.1404,VALID,0,VALID,24.0521,VALID,20,VALID,0,
2009-09-07, 00:17:04,VALID,1005.01,VALID,0,VALID,94.1785,VALID,0,VALID,24.1123,VALID,20,VALID,0,
2009-09-07, 00:18:04,VALID,1005,VALID,0,VALID,94.209,VALID,0,VALID,24.1105,VALID,20,VALID,0,
2009-09-07, 00:19:04,VALID,1005.01,VALID,0,VALID,94.2701,VALID,0,VALID,24.13,VALID,20,VALID,0,
2009-09-07, 00:20:04,VALID,1004.96,VALID,0,VALID,94.3235,VALID,0,VALID,24.1689,VALID,20,VALID,0,
2009-09-07, 00:21:04,VALID,1004.95,VALID,0,VALID,94.3387,VALID,0,VALID,24.1689,VALID,20,VALID,0,
2009-09-07, 00:22:04,VALID,1004.93,VALID,0,VALID,94.3387,VALID,0,VALID,24.1707,VALID,20,VALID,0,
2009-09-07, 00:23:04,VALID,1004.92,VALID,0,VALID,94.3158,VALID,0,VALID,24.1707,VALID,20,VALID,0,
2009-09-07, 00:24:04,VALID,1004.9,VALID,0,VALID,94.2853,VALID,0,VALID,24.1105,VALID,20,VALID,0,
2009-09-07, 00:25:04,VALID,1004.89,VALID,0,VALID,94.2319,VALID,0,VALID,24.1105,VALID,20,VALID,0,
2009-09-07, 00:26:04,VALID,1004.87,VALID,0,VALID,94.2624,VALID,0,VALID,24.1105,VALID,20,VALID,0,
2009-09-07, 00:27:04,VALID,1004.85,VALID,0,VALID,94.2853,VALID,0,VALID,24.1105,VALID,20,VALID,0,
2009-09-07, 00:28:04,VALID,1004.83,VALID,0,VALID,94.3082,VALID,0,VALID,24.1318,VALID,20,VALID,0,
2009-09-07, 00:29:04,VALID,1004.8,VALID,0,VALID,94.3006,VALID,0,VALID,24.1105,VALID,20,VALID,0,
2009-09-07, 00:30:04,VALID,1004.77,VALID,0,VALID,94.3464,VALID,0,VALID,24.13,VALID,20,VALID,0,
2009-09-07, 00:31:04,VALID,1004.76,VALID,0,VALID,94.354,VALID,0,VALID,24.1318,VALID,20,VALID,0,
2009-09-07, 00:32:04,VALID,1004.71,VALID,0,VALID,94.354,VALID,0,VALID,24.1123,VALID,20,VALID,0,
2009-09-07, 00:33:04,VALID,1004.7,VALID,0,VALID,94.3387,VALID,0,VALID,24.0716,VALID,20,VALID,0,
2009-09-07, 00:34:04,VALID,1004.66,VALID,0,VALID,94.3387,VALID,0,VALID,24.0716,VALID,20,VALID,0,
2009-09-07, 00:35:04,VALID,1004.66,VALID,0,VALID,94.3311,VALID,0,VALID,24.0929,VALID,20,VALID,0,
2009-09-07, 00:36:04,VALID,1004.63,VALID,0,VALID,94.3387,VALID,0,VALID,24.0716,VALID,20,VALID,0,
2009-09-07, 00:37:04,VALID,1004.6,VALID,0,VALID,94.3464,VALID,0,VALID,24.0929,VALID,20,VALID,0,
2009-09-07, 00:38:04,VALID,1004.58,VALID,0,VALID,94.3464,VALID,0,VALID,24.0716,VALID,20,VALID,0,
2009-09-07, 00:39:04,VALID,1004.57,VALID,0,VALID,94.3311,VALID,0,VALID,24.0929,VALID,20,VALID,0,
2009-09-07, 00:40:04,VALID,1004.55,VALID,0,VALID,94.3387,VALID,0,VALID,24.0716,VALID,20,VALID,0,
2009-09-07, 00:41:04,VALID,1004.52,VALID,0,VALID,94.3006,VALID,0,VALID,24.0929,VALID,20,VALID,0,
2009-09-07, 00:42:04,VALID,1004.48,VALID,0,VALID,94.3082,VALID,0,VALID,24.1105,VALID,22,VALID,0.621875,
2009-09-07, 00:43:04,VALID,1004.49,VALID,0,VALID,94.3082,VALID,0,VALID,24.1123,VALID,22,VALID,0.39375,
2009-09-07, 00:44:04,VALID,1004.45,VALID,0,VALID,94.2472,VALID,0,VALID,24.1105,VALID,25,VALID,0.542188,
2009-09-07, 00:45:04,VALID,1004.43,VALID,0,VALID,94.2396,VALID,0,VALID,24.1105,VALID,25,VALID,0.334375,
2009-09-07, 00:46:04,VALID,1004.43,VALID,0,VALID,94.2167,VALID,0,VALID,24.1318,VALID,25,VALID,0.503125,
2009-09-07, 00:47:04,VALID,1004.41,VALID,0,VALID,94.1938,VALID,0.100563,VALID,24.13,VALID,25,VALID,0.3375,
2009-09-07, 00:48:04,VALID,1004.39,VALID,0,VALID,94.1785,VALID,0,VALID,24.1513,VALID,25,VALID,0.3,
2009-09-07, 00:49:04,VALID,1004.39,VALID,0,VALID,94.148,VALID,0,VALID,24.1494,VALID,44,VALID,0.564453,
2009-09-07, 00:50:04,VALID,1004.37,VALID,0,VALID,94.1099,VALID,0,VALID,24.13,VALID,47,VALID,0.446875,
2009-09-07, 00:51:04,VALID,1004.36,VALID,0,VALID,94.087,VALID,0,VALID,24.1689,VALID,47,VALID,0.276953,
2009-09-07, 00:52:04,VALID,1004.35,VALID,0,VALID,94.0412,VALID,0,VALID,24.1689,VALID,51,VALID,0.356641,
2009-09-07, 00:53:04,VALID,1004.3,VALID,0,VALID,94.0259,VALID,0,VALID,24.1689,VALID,51,VALID,0.251953,
2009-09-07, 00:54:04,VALID,1004.28,VALID,0,VALID,93.9649,VALID,0,VALID,24.2078,VALID,51,VALID,0.387891,
2009-09-07, 00:55:04,VALID,1004.28,VALID,0,VALID,93.9191,VALID,0,VALID,24.2078,VALID,51,VALID,0.350391,
2009-09-07, 00:56:04,VALID,1004.23,VALID,0,VALID,93.8963,VALID,0,VALID,24.2078,VALID,51,VALID,0.377344,
2009-09-07, 00:57:04,VALID,1004.19,VALID,0,VALID,93.8657,VALID,0,VALID,24.2468,VALID,63,VALID,0.379687,
2009-09-07, 00:58:04,VALID,1004.16,VALID,0,VALID,93.82,VALID,0,VALID,24.2875,VALID,63,VALID,0.289453,
2009-09-07, 00:59:04,VALID,1004.14,VALID,0,VALID,93.7589,VALID,0,VALID,24.2662,VALID,47,VALID,0.707422,
2009-09-07, 01:00:04,VALID,1004.15,VALID,0,VALID,93.6369,VALID,0,VALID,24.2468,VALID,44,VALID,0.520312,
2009-09-07, 01:01:04,VALID,1004.13,VALID,0,VALID,93.553,VALID,0,VALID,24.2468,VALID,44,VALID,0.521484,
2009-09-07, 01:02:04,VALID,1004.1,VALID,0,VALID,93.4767,VALID,0,VALID,24.2273,VALID,44,VALID,0,
2009-09-07, 01:03:04,VALID,1004.07,VALID,0,VALID,93.4233,VALID,0,VALID,24.2078,VALID,44,VALID,0,
2009-09-07, 01:04:04,VALID,1004.05,VALID,0,VALID,93.3546,VALID,0,VALID,24.2078,VALID,44,VALID,0,
2009-09-07, 01:05:04,VALID,1004.06,VALID,0,VALID,93.3699,VALID,0,VALID,24.1884,VALID,45,VALID,0.317969,
2009-09-07, 01:06:04,VALID,1004.04,VALID,0,VALID,93.408,VALID,0,VALID,24.2097,VALID,49,VALID,0.377344,
2009-09-07, 01:07:04,VALID,1004,VALID,0,VALID,93.4004,VALID,0,VALID,24.1884,VALID,49,VALID,0.151562,
2009-09-07, 01:08:04,VALID,1004,VALID,0,VALID,93.4385,VALID,0,VALID,24.2097,VALID,49,VALID,0.204297,
2009-09-07, 01:09:04,VALID,1003.97,VALID,0,VALID,93.4462,VALID,0.100563,VALID,24.2078,VALID,49,VALID,0.386328,
2009-09-07, 01:10:04,VALID,1003.98,VALID,0,VALID,93.4614,VALID,0,VALID,24.1884,VALID,54,VALID,0,
2009-09-07, 01:11:04,VALID,1003.97,VALID,0,VALID,93.4385,VALID,0,VALID,24.2291,VALID,54,VALID,0,
2009-09-07, 01:12:04,VALID,1003.93,VALID,0,VALID,93.4156,VALID,0.100563,VALID,24.2078,VALID,54,VALID,0,
2009-09-07, 01:13:04,VALID,1003.91,VALID,0,VALID,93.4233,VALID,0,VALID,24.2273,VALID,54,VALID,0,
2009-09-07, 01:14:04,VALID,1003.91,VALID,0,VALID,93.408,VALID,0,VALID,24.2486,VALID,54,VALID,0,
2009-09-07, 01:15:04,VALID,1003.87,VALID,0,VALID,93.4309,VALID,0,VALID,24.2273,VALID,54,VALID,0,
2009-09-07, 01:16:04,VALID,1003.85,VALID,0,VALID,93.4233,VALID,0,VALID,24.2681,VALID,54,VALID,0,
2009-09-07, 01:17:04,VALID,1003.83,VALID,0,VALID,93.3851,VALID,0,VALID,24.2273,VALID,54,VALID,0,
2009-09-07, 01:18:04,VALID,1003.81,VALID,0,VALID,93.3775,VALID,0,VALID,24.2273,VALID,54,VALID,0,
2009-09-07, 01:19:04,VALID,1003.79,VALID,0,VALID,93.3775,VALID,0,VALID,24.2273,VALID,54,VALID,0,
2009-09-07, 01:20:04,VALID,1003.78,VALID,0,VALID,93.4919,VALID,0,VALID,24.2662,VALID,54,VALID,0,
2009-09-07, 01:21:04,VALID,1003.79,VALID,0,VALID,93.4385,VALID,0,VALID,24.2857,VALID,54,VALID,0,
2009-09-07, 01:22:04,VALID,1003.77,VALID,0,VALID,93.3775,VALID,0,VALID,24.3265,VALID,54,VALID,0,
2009-09-07, 01:23:04,VALID,1003.79,VALID,0,VALID,93.3394,VALID,0,VALID,24.3246,VALID,54,VALID,0,
2009-09-07, 01:24:04,VALID,1003.76,VALID,0,VALID,93.2859,VALID,0,VALID,24.3654,VALID,54,VALID,0,
2009-09-07, 01:25:04,VALID,1003.8,VALID,0,VALID,93.2249,VALID,0,VALID,24.3441,VALID,54,VALID,0,
2009-09-07, 01:26:04,VALID,1003.8,VALID,0,VALID,93.1639,VALID,0,VALID,24.3441,VALID,54,VALID,0,
2009-09-07, 01:27:04,VALID,1003.79,VALID,0,VALID,93.1257,VALID,0,VALID,24.3636,VALID,54,VALID,0,
2009-09-07, 01:28:04,VALID,1003.78,VALID,0,VALID,93.0723,VALID,0,VALID,24.3636,VALID,54,VALID,0,
2009-09-07, 01:29:04,VALID,1003.79,VALID,0,VALID,93.0495,VALID,0,VALID,24.3636,VALID,54,VALID,0,
2009-09-07, 01:30:04,VALID,1003.79,VALID,0,VALID,93.0037,VALID,0,VALID,24.3441,VALID,54,VALID,0,
2009-09-07, 01:31:04,VALID,1003.79,VALID,0,VALID,92.9884,VALID,0,VALID,24.3246,VALID,54,VALID,0,
2009-09-07, 01:32:04,VALID,1003.8,VALID,0,VALID,92.9808,VALID,0,VALID,24.307,VALID,54,VALID,0,
2009-09-07, 01:33:04,VALID,1003.81,VALID,0,VALID,92.9274,VALID,0,VALID,24.3265,VALID,55,VALID,0,
2009-09-07, 01:34:04,VALID,1003.8,VALID,0,VALID,92.9045,VALID,0,VALID,24.2875,VALID,55,VALID,0,
2009-09-07, 01:35:04,VALID,1003.81,VALID,0,VALID,92.9274,VALID,0,VALID,24.2875,VALID,55,VALID,0,
2009-09-07, 01:36:04,VALID,1003.8,VALID,0,VALID,92.9426,VALID,0,VALID,24.2468,VALID,55,VALID,0,
2009-09-07, 01:37:04,VALID,1003.78,VALID,0,VALID,93.0418,VALID,0,VALID,24.2468,VALID,58,VALID,0,
2009-09-07, 01:38:04,VALID,1003.78,VALID,0,VALID,93.0571,VALID,0,VALID,24.2662,VALID,60,VALID,0,
2009-09-07, 01:39:04,VALID,1003.75,VALID,0,VALID,93.0266,VALID,0,VALID,24.2857,VALID,60,VALID,0,
2009-09-07, 01:40:04,VALID,1003.75,VALID,0,VALID,93.0266,VALID,0,VALID,24.2662,VALID,60,VALID,0,
2009-09-07, 01:41:04,VALID,1003.73,VALID,0,VALID,93.0495,VALID,0,VALID,24.2875,VALID,60,VALID,0,
2009-09-07, 01:42:04,VALID,1003.71,VALID,0,VALID,93.0418,VALID,0,VALID,24.3088,VALID,61,VALID,0,
2009-09-07, 01:43:04,VALID,1003.71,VALID,0,VALID,92.9732,VALID,0,VALID,24.2681,VALID,62,VALID,0.116016,
2009-09-07, 01:44:04,VALID,1003.7,VALID,0,VALID,92.9198,VALID,0,VALID,24.2468,VALID,73,VALID,0.749609,
2009-09-07, 01:45:04,VALID,1003.72,VALID,0,VALID,92.9274,VALID,0,VALID,24.2662,VALID,74,VALID,0.249219,
2009-09-07, 01:46:04,VALID,1003.69,VALID,0,VALID,93.0189,VALID,0,VALID,24.2681,VALID,60,VALID,0.427344,
2009-09-07, 01:47:04,VALID,1003.7,VALID,0,VALID,93.0266,VALID,0,VALID,24.2468,VALID,48,VALID,0,
2009-09-07, 01:48:04,VALID,1003.67,VALID,0,VALID,93.0266,VALID,0,VALID,24.2273,VALID,49,VALID,0.143359,
2009-09-07, 01:49:04,VALID,1003.68,VALID,0,VALID,93.0723,VALID,0,VALID,24.2681,VALID,67,VALID,0.327734,
2009-09-07, 01:50:04,VALID,1003.63,VALID,0,VALID,93.141,VALID,0,VALID,24.2662,VALID,70,VALID,0.494922,
2009-09-07, 01:51:04,VALID,1003.64,VALID,0,VALID,93.1105,VALID,0,VALID,24.3052,VALID,70,VALID,0,
2009-09-07, 01:52:04,VALID,1003.6,VALID,0,VALID,93.0189,VALID,0,VALID,24.3246,VALID,70,VALID,0,
2009-09-07, 01:53:04,VALID,1003.61,VALID,0,VALID,92.9808,VALID,0,VALID,24.3459,VALID,69,VALID,0,
2009-09-07, 01:54:04,VALID,1003.59,VALID,0,VALID,92.8892,VALID,0,VALID,24.3441,VALID,68,VALID,0,
2009-09-07, 01:55:04,VALID,1003.6,VALID,0,VALID,92.8053,VALID,0,VALID,24.4043,VALID,84,VALID,0.631641,
2009-09-07, 01:56:04,VALID,1003.57,VALID,0,VALID,92.7138,VALID,0,VALID,24.4025,VALID,81,VALID,0.0425781,
2009-09-07, 01:57:04,VALID,1003.58,VALID,0,VALID,92.5765,VALID,0,VALID,24.422,VALID,60,VALID,0.350781,
2009-09-07, 01:58:04,VALID,1003.58,VALID,0,VALID,92.4544,VALID,0,VALID,24.422,VALID,49,VALID,0.213281,
2009-09-07, 01:59:04,VALID,1003.57,VALID,0,VALID,92.3857,VALID,0,VALID,24.383,VALID,48,VALID,0.00195313,
2009-09-07, 02:00:04,VALID,1003.53,VALID,0,VALID,92.3552,VALID,0,VALID,24.3636,VALID,46,VALID,0,
2009-09-07, 02:01:04,VALID,1003.55,VALID,0,VALID,92.3552,VALID,0,VALID,24.3441,VALID,46,VALID,0,
2009-09-07, 02:02:04,VALID,1003.55,VALID,0,VALID,92.401,VALID,0,VALID,24.3459,VALID,46,VALID,0,
2009-09-07, 02:03:04,VALID,1003.56,VALID,0,VALID,92.4697,VALID,0,VALID,24.3265,VALID,46,VALID,0,
2009-09-07, 02:04:04,VALID,1003.54,VALID,0,VALID,92.5307,VALID,0,VALID,24.3052,VALID,46,VALID,0,
2009-09-07, 02:05:04,VALID,1003.57,VALID,0,VALID,92.6146,VALID,0,VALID,24.307,VALID,47,VALID,0,
2009-09-07, 02:06:04,VALID,1003.54,VALID,0,VALID,92.7214,VALID,0,VALID,24.307,VALID,57,VALID,0,
2009-09-07, 02:07:04,VALID,1003.55,VALID,0,VALID,92.7672,VALID,0,VALID,24.3052,VALID,57,VALID,0,
2009-09-07, 02:08:04,VALID,1003.55,VALID,0,VALID,92.7977,VALID,0,VALID,24.2857,VALID,57,VALID,0,
2009-09-07, 02:09:04,VALID,1003.55,VALID,0,VALID,92.813,VALID,0,VALID,24.307,VALID,57,VALID,0.240234,
2009-09-07, 02:10:04,VALID,1003.55,VALID,0,VALID,92.813,VALID,0,VALID,24.2857,VALID,57,VALID,0.173828,
2009-09-07, 02:11:04,VALID,1003.53,VALID,0,VALID,92.8892,VALID,0,VALID,24.307,VALID,57,VALID,0.200781,
2009-09-07, 02:12:04,VALID,1003.53,VALID,0,VALID,92.9045,VALID,0,VALID,24.307,VALID,57,VALID,0.170703,
2009-09-07, 02:13:04,VALID,1003.5,VALID,0,VALID,92.9655,VALID,0,VALID,24.2662,VALID,57,VALID,0.365234,
2009-09-07, 02:14:04,VALID,1003.51,VALID,0,VALID,92.9655,VALID,0,VALID,24.307,VALID,57,VALID,0,
2009-09-07, 02:15:04,VALID,1003.48,VALID,0,VALID,92.9655,VALID,0,VALID,24.2875,VALID,57,VALID,0,
2009-09-07, 02:16:04,VALID,1003.49,VALID,0,VALID,93.0113,VALID,0,VALID,24.307,VALID,51,VALID,0.502344,
2009-09-07, 02:17:04,VALID,1003.46,VALID,0,VALID,92.9121,VALID,0,VALID,24.2662,VALID,51,VALID,0.484375,
2009-09-07, 02:18:04,VALID,1003.44,VALID,0,VALID,92.8892,VALID,0,VALID,24.2662,VALID,51,VALID,0.403516,
2009-09-07, 02:19:04,VALID,1003.43,VALID,0,VALID,92.874,VALID,0,VALID,24.2468,VALID,51,VALID,0.260156,
2009-09-07, 02:20:04,VALID,1003.41,VALID,0,VALID,92.8358,VALID,0,VALID,24.2486,VALID,51,VALID,0.158203,
2009-09-07, 02:21:04,VALID,1003.44,VALID,0,VALID,92.8435,VALID,0,VALID,24.2078,VALID,51,VALID,0.0382813,
2009-09-07, 02:22:04,VALID,1003.42,VALID,0,VALID,92.8206,VALID,0,VALID,24.2291,VALID,51,VALID,0.00351562,
2009-09-07, 02:23:04,VALID,1003.42,VALID,0,VALID,92.9198,VALID,0,VALID,24.2097,VALID,51,VALID,0.0917969,
2009-09-07, 02:24:04,VALID,1003.45,VALID,0,VALID,92.9274,VALID,0,VALID,24.231,VALID,51,VALID,0.354688,
2009-09-07, 02:25:04,VALID,1003.44,VALID,0,VALID,92.9808,VALID,0,VALID,24.1707,VALID,54,VALID,0.153516,
2009-09-07, 02:26:04,VALID,1003.43,VALID,0,VALID,93.0952,VALID,0,VALID,24.1707,VALID,54,VALID,0.361328,
2009-09-07, 02:27:04,VALID,1003.43,VALID,0,VALID,93.1868,VALID,0,VALID,24.1707,VALID,54,VALID,0.00195313,
2009-09-07, 02:28:04,VALID,1003.45,VALID,0,VALID,93.2249,VALID,0,VALID,24.1689,VALID,54,VALID,0,
2009-09-07, 02:29:04,VALID,1003.43,VALID,0,VALID,93.2707,VALID,0,VALID,24.1707,VALID,54,VALID,0,
2009-09-07, 02:30:04,VALID,1003.43,VALID,0,VALID,93.3088,VALID,0,VALID,24.1494,VALID,54,VALID,0,
2009-09-07, 02:31:04,VALID,1003.42,VALID,0,VALID,93.3394,VALID,0,VALID,24.1105,VALID,54,VALID,0,
2009-09-07, 02:32:04,VALID,1003.43,VALID,0,VALID,93.3699,VALID,0,VALID,24.1318,VALID,54,VALID,0.156641,
2009-09-07, 02:33:04,VALID,1003.4,VALID,0,VALID,93.4156,VALID,0,VALID,24.1105,VALID,54,VALID,0.333203,
2009-09-07, 02:34:04,VALID,1003.4,VALID,0,VALID,93.4004,VALID,0,VALID,24.1336,VALID,54,VALID,0.135937,
2009-09-07, 02:35:04,VALID,1003.43,VALID,0,VALID,93.3317,VALID,0,VALID,24.0521,VALID,54,VALID,0.235547,
2009-09-07, 02:36:04,VALID,1003.41,VALID,0,VALID,93.3165,VALID,0,VALID,24.0539,VALID,54,VALID,0.0832031,
2009-09-07, 02:37:04,VALID,1003.41,VALID,0,VALID,93.3317,VALID,0,VALID,24.0539,VALID,53,VALID,0,
2009-09-07, 02:38:04,VALID,1003.4,VALID,0,VALID,93.4004,VALID,0,VALID,24.0345,VALID,53,VALID,0,
2009-09-07, 02:39:04,VALID,1003.37,VALID,0,VALID,93.4538,VALID,0,VALID,24.0345,VALID,54,VALID,0,
2009-09-07, 02:40:04,VALID,1003.39,VALID,0,VALID,93.4767,VALID,0,VALID,24.0132,VALID,53,VALID,0,
2009-09-07, 02:41:04,VALID,1003.38,VALID,0,VALID,93.5148,VALID,0,VALID,24.0345,VALID,54,VALID,0,
2009-09-07, 02:42:04,VALID,1003.4,VALID,0,VALID,93.5224,VALID,0,VALID,24.0734,VALID,54,VALID,0,
2009-09-07, 02:43:04,VALID,1003.37,VALID,0,VALID,93.5377,VALID,0,VALID,24.0521,VALID,54,VALID,0,
2009-09-07, 02:44:04,VALID,1003.38,VALID,0,VALID,93.5301,VALID,0,VALID,24.0929,VALID,54,VALID,0,
2009-09-07, 02:45:04,VALID,1003.38,VALID,0,VALID,93.5072,VALID,0,VALID,24.1123,VALID,54,VALID,0,
2009-09-07, 02:46:04,VALID,1003.38,VALID,0,VALID,93.4614,VALID,0,VALID,24.1318,VALID,54,VALID,0,
2009-09-07, 02:47:04,VALID,1003.39,VALID,0,VALID,93.4156,VALID,0,VALID,24.1318,VALID,54,VALID,0,
2009-09-07, 02:48:04,VALID,1003.38,VALID,0,VALID,93.3851,VALID,0,VALID,24.1318,VALID,53,VALID,0,
2009-09-07, 02:49:04,VALID,1003.39,VALID,0,VALID,93.3775,VALID,0,VALID,24.13,VALID,53,VALID,0,
2009-09-07, 02:50:04,VALID,1003.39,VALID,0,VALID,93.3012,VALID,0,VALID,24.1318,VALID,53,VALID,0.0398437,
2009-09-07, 02:51:04,VALID,1003.39,VALID,0,VALID,93.3088,VALID,0,VALID,24.1318,VALID,53,VALID,0.388281,
2009-09-07, 02:52:04,VALID,1003.39,VALID,0,VALID,93.3317,VALID,0,VALID,24.1318,VALID,53,VALID,0,
2009-09-07, 02:53:04,VALID,1003.38,VALID,0,VALID,93.2859,VALID,0,VALID,24.1123,VALID,53,VALID,0,
2009-09-07, 02:54:04,VALID,1003.35,VALID,0,VALID,93.3241,VALID,0,VALID,24.0929,VALID,53,VALID,0,
2009-09-07, 02:55:04,VALID,1003.37,VALID,0,VALID,93.3012,VALID,0,VALID,24.0716,VALID,53,VALID,0,
2009-09-07, 02:56:04,VALID,1003.34,VALID,0,VALID,93.2859,VALID,0,VALID,24.0734,VALID,53,VALID,0,
2009-09-07, 02:57:04,VALID,1003.34,VALID,0,VALID,93.3088,VALID,0,VALID,24.0521,VALID,53,VALID,0,
2009-09-07, 02:58:04,VALID,1003.34,VALID,0,VALID,93.3622,VALID,0,VALID,24.0734,VALID,53,VALID,0,
2009-09-07, 02:59:04,VALID,1003.3,VALID,0,VALID,93.408,VALID,0,VALID,24.0929,VALID,53,VALID,0,
2009-09-07, 03:00:04,VALID,1003.33,VALID,0,VALID,93.408,VALID,0,VALID,24.0734,VALID,53,VALID,0,
2009-09-07, 03:01:04,VALID,1003.35,VALID,0,VALID,93.4004,VALID,0,VALID,24.0716,VALID,53,VALID,0,
2009-09-07, 03:02:04,VALID,1003.36,VALID,0,VALID,93.4614,VALID,0,VALID,24.0929,VALID,54,VALID,0,
2009-09-07, 03:03:04,VALID,1003.37,VALID,0,VALID,93.4614,VALID,0,VALID,24.0929,VALID,54,VALID,0,
2009-09-07, 03:04:04,VALID,1003.4,VALID,0,VALID,93.4919,VALID,0,VALID,24.0929,VALID,54,VALID,0,
2009-09-07, 03:05:04,VALID,1003.39,VALID,0,VALID,93.4919,VALID,0,VALID,24.0929,VALID,54,VALID,0,
2009-09-07, 03:06:04,VALID,1003.45,VALID,0,VALID,93.4996,VALID,0,VALID,24.091,VALID,54,VALID,0,
2009-09-07, 03:07:04,VALID,1003.42,VALID,0,VALID,93.5224,VALID,0,VALID,24.1123,VALID,54,VALID,0,
2009-09-07, 03:08:04,VALID,1003.42,VALID,0,VALID,93.553,VALID,0,VALID,24.091,VALID,54,VALID,0,
2009-09-07, 03:09:04,VALID,1003.44,VALID,0,VALID,93.5301,VALID,0,VALID,24.0716,VALID,53,VALID,0,
2009-09-07, 03:10:04,VALID,1003.43,VALID,0,VALID,93.4538,VALID,0,VALID,24.0326,VALID,54,VALID,0,
2009-09-07, 03:11:04,VALID,1003.43,VALID,0,VALID,93.4996,VALID,0,VALID,24.0521,VALID,54,VALID,0,
2009-09-07, 03:12:04,VALID,1003.42,VALID,0,VALID,93.5453,VALID,0,VALID,24.0539,VALID,54,VALID,0,
2009-09-07, 03:13:04,VALID,1003.41,VALID,0,VALID,93.5758,VALID,0,VALID,24.0326,VALID,54,VALID,0,
2009-09-07, 03:14:04,VALID,1003.42,VALID,0,VALID,93.5835,VALID,0,VALID,24.0132,VALID,54,VALID,0,
2009-09-07, 03:15:04,VALID,1003.44,VALID,0,VALID,93.614,VALID,0,VALID,23.9937,VALID,54,VALID,0,
2009-09-07, 03:16:04,VALID,1003.45,VALID,0,VALID,93.6445,VALID,0,VALID,23.9724,VALID,54,VALID,0,
2009-09-07, 03:17:04,VALID,1003.45,VALID,0,VALID,93.7513,VALID,0,VALID,24.0132,VALID,54,VALID,0,
2009-09-07, 03:18:04,VALID,1003.48,VALID,0,VALID,93.82,VALID,0,VALID,24.0539,VALID,54,VALID,0,
2009-09-07, 03:19:04,VALID,1003.5,VALID,0,VALID,93.8581,VALID,0,VALID,24.0326,VALID,54,VALID,0,
2009-09-07, 03:20:04,VALID,1003.48,VALID,0,VALID,93.881,VALID,0,VALID,24.0326,VALID,54,VALID,0,
2009-09-07, 03:21:04,VALID,1003.48,VALID,0,VALID,93.8352,VALID,0,VALID,24.0539,VALID,54,VALID,0,
2009-09-07, 03:22:04,VALID,1003.46,VALID,0,VALID,93.8352,VALID,0,VALID,24.0345,VALID,54,VALID,0,
2009-09-07, 03:23:04,VALID,1003.41,VALID,0,VALID,93.8505,VALID,0,VALID,24.0345,VALID,54,VALID,0,
2009-09-07, 03:24:04,VALID,1003.4,VALID,0,VALID,93.8276,VALID,0,VALID,24.0345,VALID,54,VALID,0,
2009-09-07, 03:25:04,VALID,1003.34,VALID,0,VALID,93.8581,VALID,0,VALID,23.9937,VALID,54,VALID,0,
2009-09-07, 03:26:04,VALID,1003.33,VALID,0,VALID,93.8963,VALID,0,VALID,24.015,VALID,54,VALID,0,
2009-09-07, 03:27:04,VALID,1003.32,VALID,0,VALID,93.9344,VALID,0,VALID,23.9937,VALID,54,VALID,0,
2009-09-07, 03:28:04,VALID,1003.34,VALID,0,VALID,93.9649,VALID,0,VALID,24.015,VALID,54,VALID,0,
2009-09-07, 03:29:04,VALID,1003.34,VALID,0,VALID,93.9878,VALID,0,VALID,23.9955,VALID,54,VALID,0,
2009-09-07, 03:30:04,VALID,1003.36,VALID,0,VALID,94.0183,VALID,0,VALID,24.0345,VALID,54,VALID,0,
2009-09-07, 03:31:04,VALID,1003.38,VALID,0,VALID,94.0412,VALID,0,VALID,24.015,VALID,47,VALID,0,
2009-09-07, 03:32:04,VALID,1003.38,VALID,0,VALID,94.0641,VALID,0,VALID,24.015,VALID,44,VALID,0.28125,
2009-09-07, 03:33:04,VALID,1003.38,VALID,0,VALID,94.0641,VALID,0,VALID,23.9955,VALID,44,VALID,0.319922,
2009-09-07, 03:34:04,VALID,1003.38,VALID,0,VALID,94.0794,VALID,0,VALID,23.9548,VALID,44,VALID,0.376953,
2009-09-07, 03:35:04,VALID,1003.35,VALID,0,VALID,94.1633,VALID,0,VALID,23.9742,VALID,29,VALID,0.500391,
2009-09-07, 03:36:04,VALID,1003.35,VALID,0,VALID,94.2624,VALID,0,VALID,24.0132,VALID,29,VALID,0.315625,
2009-09-07, 03:37:04,VALID,1003.35,VALID,0,VALID,94.3082,VALID,0,VALID,24.0345,VALID,29,VALID,0.142188,
2009-09-07, 03:38:04,VALID,1003.33,VALID,0,VALID,94.3387,VALID,0,VALID,24.015,VALID,29,VALID,0.214844,
2009-09-07, 03:39:04,VALID,1003.32,VALID,0,VALID,94.354,VALID,0,VALID,23.9955,VALID,29,VALID,0.190234,
2009-09-07, 03:40:04,VALID,1003.32,VALID,0,VALID,94.3769,VALID,0,VALID,23.9955,VALID,29,VALID,0,
2009-09-07, 03:41:04,VALID,1003.33,VALID,0,VALID,94.4074,VALID,0,VALID,24.015,VALID,29,VALID,0,
2009-09-07, 03:42:04,VALID,1003.31,VALID,0,VALID,94.4532,VALID,0,VALID,23.9937,VALID,28,VALID,0,
2009-09-07, 03:43:04,VALID,1003.34,VALID,0,VALID,94.4761,VALID,0,VALID,23.9937,VALID,28,VALID,0,
2009-09-07, 03:44:04,VALID,1003.31,VALID,0,VALID,94.5142,VALID,0,VALID,23.9937,VALID,28,VALID,0,
2009-09-07, 03:45:04,VALID,1003.33,VALID,0,VALID,94.56,VALID,0,VALID,24.015,VALID,28,VALID,0,
2009-09-07, 03:46:04,VALID,1003.31,VALID,0,VALID,94.56,VALID,0,VALID,24.015,VALID,28,VALID,0,
2009-09-07, 03:47:04,VALID,1003.36,VALID,0,VALID,94.5905,VALID,0,VALID,24.0132,VALID,28,VALID,0,
2009-09-07, 03:48:04,VALID,1003.33,VALID,0,VALID,94.6134,VALID,0,VALID,24.015,VALID,28,VALID,0,
2009-09-07, 03:49:04,VALID,1003.32,VALID,0,VALID,94.6439,VALID,0,VALID,24.0539,VALID,28,VALID,0,
2009-09-07, 03:50:04,VALID,1003.33,VALID,0,VALID,94.6591,VALID,0,VALID,24.0326,VALID,28,VALID,0,
2009-09-07, 03:51:04,VALID,1003.32,VALID,0,VALID,94.6439,VALID,0,VALID,24.0132,VALID,28,VALID,0,
2009-09-07, 03:52:04,VALID,1003.34,VALID,0,VALID,94.682,VALID,0,VALID,23.9937,VALID,28,VALID,0,
2009-09-07, 03:53:04,VALID,1003.34,VALID,0,VALID,94.6973,VALID,0,VALID,24.0326,VALID,19,VALID,0,
2009-09-07, 03:54:04,VALID,1003.34,VALID,0,VALID,94.6973,VALID,0,VALID,24.0345,VALID,19,VALID,0,
2009-09-07, 03:55:04,VALID,1003.34,VALID,0,VALID,94.7125,VALID,0,VALID,24.0539,VALID,19,VALID,0,
2009-09-07, 03:56:04,VALID,1003.38,VALID,0,VALID,94.7202,VALID,0,VALID,23.9937,VALID,19,VALID,0,